Location: Partizánske
(48.6285°N, 18.3769°E)
Time: 17:12:17
(UTC+02:00)

SR - Visible Passes

Search period start: 29 June 2022 00:00
Search period end: 09 July 2022 00:00
Orbit: 573 x 880 km, 66.7° (Epoch: 29 June)

Date Brightness Start Highest point End Pass type
(mag) Time Alt. Az. Time Alt. Az. Time Alt. Az.
29 Jun ? 01:28:39 10° NNW 01:31:11 13° N 01:33:45 10° NNE visible
29 Jun ? 03:11:48 10° NNW 03:15:42 18° NNE 03:19:38 10° ENE visible
29 Jun ? 22:51:25 10° W 22:56:09 30° NW 23:01:12 10° NNE visible
30 Jun ? 00:37:13 10° NW 00:40:10 14° NNW 00:43:12 10° NNE visible
30 Jun ? 02:21:39 10° NNW 02:24:47 14° NNE 02:27:58 10° NE visible
30 Jun ? 04:03:33 10° NNW 04:08:47 31° NE 04:14:00 10° E visible
30 Jun ? 22:00:32 10° WSW 22:05:39 46° NW 22:11:11 10° NNE visible
30 Jun ? 23:45:37 10° WNW 23:49:14 17° NNW 23:52:59 10° NNE visible
01 Jul ? 01:31:10 10° NNW 01:33:47 13° N 01:36:26 10° NNE visible
01 Jul ? 03:13:33 10° NNW 03:18:07 23° NNE 03:22:43 10° E visible
01 Jul ? 22:54:09 10° W 22:58:26 23° NNW 23:02:57 10° NNE visible
02 Jul ? 00:40:10 10° NNW 00:42:46 13° N 00:45:24 10° NNE visible
02 Jul ? 02:23:30 10° NNW 02:27:19 17° NNE 02:31:09 10° ENE visible
02 Jul ? 04:05:15 10° NNW 04:10:56 44° NE 04:16:33 10° ESE visible
02 Jul ? 22:02:58 10° W 22:07:47 32° NW 22:12:56 10° NNE visible
02 Jul ? 23:48:42 10° NW 23:51:46 14° NNW 23:54:54 10° NNE visible
03 Jul ? 01:33:18 10° NNW 01:36:23 14° NNE 01:39:28 10° NE visible
03 Jul ? 03:15:15 10° NNW 03:20:25 30° NE 03:25:34 10° E visible
03 Jul ? 22:57:05 10° WNW 23:00:50 18° NNW 23:04:42 10° NNE visible
04 Jul ? 00:42:46 10° NNW 00:45:22 13° N 00:48:00 10° NNE visible
04 Jul ? 02:25:15 10° NNW 02:29:45 22° NNE 02:34:14 10° ENE visible
04 Jul ? 04:07:01 10° NNW 04:12:57 66° NE 04:18:46 10° SE visible
04 Jul ? 22:05:39 10° W 22:10:03 24° NNW 22:14:40 10° NNE visible
04 Jul ? 23:51:40 10° NNW 23:54:20 13° N 23:57:02 10° NNE visible
05 Jul ? 01:35:11 10° NNW 01:38:54 17° NNE 01:42:39 10° ENE visible
05 Jul ? 03:16:58 10° NNW 03:22:36 42° NE 03:28:09 10° ESE visible
05 Jul ? 23:00:10 10° NW 23:03:20 15° NNW 23:06:35 10° NNE visible
06 Jul ? 00:44:57 10° NNW 00:47:58 14° NNE 00:51:00 10° NE visible
06 Jul ? 02:26:58 10° NNW 02:32:03 29° NE 02:37:07 10° E visible
06 Jul ? 04:08:51 10° NW 04:14:49 81° WSW 04:20:38 10° SSE visible
06 Jul ? 22:08:34 10° WNW 22:12:26 18° NNW 22:16:25 10° NNE visible
06 Jul ? 23:54:20 10° NNW 23:56:57 13° N 23:59:34 10° NNE visible
07 Jul ? 01:36:56 10° NNW 01:41:21 21° NNE 01:45:45 10° ENE visible
07 Jul ? 03:18:43 10° NNW 03:24:37 63° NE 03:30:24 10° SE visible
07 Jul ? 23:03:11 10° NW 23:05:54 13° N 23:08:40 10° NNE visible
08 Jul ? 00:46:52 10° NNW 00:50:30 16° NNE 00:54:08 10° ENE visible
08 Jul ? 02:28:40 10° NNW 02:34:14 40° NE 02:39:44 10° ESE visible
08 Jul ? 04:10:49 10° NW 04:16:33 51° WSW 04:22:06 10° S visible
08 Jul ? 22:11:37 10° NW 22:14:55 15° NNW 22:18:16 10° NNE visible
